"Sample Date","Sample Time","Sample Value","Units","Flow Rate","Sample Interval","Number Channels","Micron Size 0","Counts/Channel 0","Micron Size 1","Counts/Channel 1","Micron Size 2","Counts/Channel 2","Micron Size 3","Counts/Channel 3","Micron Size 4","Counts/Channel 4","Micron Size 5","Counts/Channel 5","Micron Size 6","Counts/Channel 6","Micron Size 7","Counts/Channel 7","Micron Size 8","Counts/Channel 8","Micron Size 9","Counts/Channel 9","Micron Size 10","Counts/Channel 10","Micron Size 11","Counts/Channel 11","Micron Size 12","Counts/Channel 12","Micron Size 13","Counts/Channel 13","Micron Size 14","Counts/Channel 14","Micron Size 15","Counts/Channel 15","Micron Size 16","Counts/Channel 16","Micron Size 17","Counts/Channel 17","Micron Size 18","Counts/Channel 18","Micron Size 19","Counts/Channel 19","Micron Size 20","Counts/Channel 20","Micron Size 21","Counts/Channel 21","Micron Size 22","Counts/Channel 22","Micron Size 23","Counts/Channel 23","Micron Size 24","Counts/Channel 24","Micron Size 25","Counts/Channel 25","Micron Size 26","Counts/Channel 26","Micron Size 27","Counts/Channel 27","Micron Size 28","Counts/Channel 28","Micron Size 29","Counts/Channel 29","Micron Size 30","Counts/Channel 30","Micron Size 31","Counts/Channel 31"
"03/12/08","00:00:00",25703.000,"cc",28372.982,6.00,6,0.100,19476.000,0.200,2166.000,0.300,1624.000,0.500,1813.000,1.000,624.000,5.000,0
"03/12/08","00:00:06",25664.000,"cc",28348.590,6.00,6,0.100,19328.000,0.200,2058.000,0.300,1588.000,0.500,1958.000,1.000,732.000,5.000,0
"03/12/08","00:00:12",25593.000,"cc",28333.867,6.00,6,0.100,19167.000,0.200,2177.000,0.300,1610.000,0.500,1929.000,1.000,710.000,5.000,0
"03/12/08","00:00:18",25670.000,"cc",28237.008,6.00,6,0.100,19246.000,0.200,2124.000,0.300,1636.000,0.500,1957.000,1.000,707.000,5.000,0
"03/12/08","00:00:24",25809.000,"cc",28361.852,6.00,6,0.100,19454.000,0.200,2178.000,0.300,1657.000,0.500,1854.000,1.000,666.000,5.000,0
"03/12/08","00:00:30",25967.000,"cc",28290.684,6.00,6,0.100,19619.000,0.200,2139.000,0.300,1641.000,0.500,1948.000,1.000,620.000,5.000,0
"03/12/08","00:00:36",25927.000,"cc",28339.354,6.00,6,0.100,19691.000,0.200,2128.000,0.300,1593.000,0.500,1887.000,1.000,628.000,5.000,0
"03/12/08","00:00:42",25664.000,"cc",28262.051,6.00,6,0.100,19438.000,0.200,2056.000,0.300,1646.000,0.500,1848.000,1.000,676.000,5.000,0
"03/12/08","00:00:48",25910.000,"cc",28248.613,6.00,6,0.100,19545.000,0.200,2139.000,0.300,1637.000,0.500,1920.000,1.000,669.000,5.000,0
"03/12/08","00:00:54",25708.000,"cc",28395.094,6.00,6,0.100,19397.000,0.200,2131.000,0.300,1631.000,0.500,1894.000,1.000,655.000,5.000,0
"03/12/08","00:01:00",25206.000,"cc",28282.500,6.00,6,0.100,19063.000,0.200,2022.000,0.300,1560.000,0.500,1900.000,1.000,661.000,5.000,0
"03/12/08","00:01:06",25317.000,"cc",28306.422,6.00,6,0.100,19183.000,0.200,2044.000,0.300,1601.000,0.500,1854.000,1.000,635.000,5.000,0
"03/12/08","00:01:12",25901.000,"cc",28310.348,6.00,6,0.100,19453.000,0.200,2161.000,0.300,1669.000,0.500,1981.000,1.000,637.000,5.000,0
"03/12/08","00:01:18",25358.000,"cc",28396.387,6.00,6,0.100,19326.000,0.200,2082.000,0.300,1534.000,0.500,1750.000,1.000,666.000,5.000,0
"03/12/08","00:01:24",25423.000,"cc",28279.451,6.00,6,0.100,19217.000,0.200,2073.000,0.300,1623.000,0.500,1868.000,1.000,642.000,5.000,0
"03/12/08","00:01:30",25989.000,"cc",28247.000,6.00,6,0.100,19646.000,0.200,2160.000,0.300,1619.000,0.500,1860.000,1.000,704.000,5.000,0
"03/12/08","00:01:36",25384.000,"cc",28386.051,6.00,6,0.100,19374.000,0.200,2030.000,0.300,1570.000,0.500,1796.000,1.000,614.000,5.000,0
"03/12/08","00:01:42",25627.000,"cc",28342.027,6.00,6,0.100,19422.000,0.200,2081.000,0.300,1540.000,0.500,1910.000,1.000,674.000,5.000,0
"03/12/08","00:01:48",25933.000,"cc",28289.922,6.00,6,0.100,19658.000,0.200,2106.000,0.300,1563.000,0.500,1936.000,1.000,670.000,5.000,0
"03/12/08","00:01:54",25719.000,"cc",28397.117,6.00,6,0.100,19383.000,0.200,2146.000,0.300,1627.000,0.500,1926.000,1.000,637.000,5.000,0
"03/12/08","00:02:00",25369.000,"cc",28322.115,6.00,6,0.100,19174.000,0.200,2169.000,0.300,1607.000,0.500,1772.000,1.000,647.000,5.000,0
"03/12/08","00:02:06",25632.000,"cc",28320.164,6.00,6,0.100,19482.000,0.200,2095.000,0.300,1577.000,0.500,1834.000,1.000,644.000,5.000,0
"03/12/08","00:02:12",25490.000,"cc",28237.479,6.00,6,0.100,19475.000,0.200,2037.000,0.300,1561.000,0.500,1779.000,1.000,638.000,5.000,0
"03/12/08","00:02:18",25776.000,"cc",28363.219,6.00,6,0.100,19406.000,0.200,2130.000,0.300,1674.000,0.500,1898.000,1.000,668.000,5.000,0
"03/12/08","00:02:24",25608.000,"cc",28324.481,6.00,6,0.100,19552.000,0.200,2063.000,0.300,1573.000,0.500,1784.000,1.000,636.000,5.000,0
"03/12/08","00:02:30",25546.000,"cc",28363.316,6.00,6,0.100,19381.000,0.200,2127.000,0.300,1493.000,0.500,1828.000,1.000,717.000,5.000,0
"03/12/08","00:02:36",25202.000,"cc",28300.721,6.00,6,0.100,19233.000,0.200,2064.000,0.300,1503.000,0.500,1797.000,1.000,605.000,5.000,0
"03/12/08","00:02:42",25182.000,"cc",28323.807,6.00,6,0.100,19170.000,0.200,1970.000,0.300,1552.000,0.500,1834.000,1.000,656.000,5.000,0
"03/12/08","00:02:48",25256.000,"cc",28297.000,6.00,6,0.100,19148.000,0.200,2101.000,0.300,1527.000,0.500,1816.000,1.000,664.000,5.000,0
"03/12/08","00:02:54",25248.000,"cc",28343.822,6.00,6,0.100,19082.000,0.200,2024.000,0.300,1628.000,0.500,1879.000,1.000,635.000,5.000,0
"03/12/08","00:03:00",25393.000,"cc",28318.080,6.00,6,0.100,19220.000,0.200,2074.000,0.300,1602.000,0.500,1863.000,1.000,634.000,5.000,0
"03/12/08","00:03:06",25280.000,"cc",28357.664,6.00,6,0.100,19284.000,0.200,2106.000,0.300,1522.000,0.500,1764.000,1.000,604.000,5.000,0
"03/12/08","00:03:12",25219.000,"cc",28286.725,6.00,6,0.100,19156.000,0.200,2115.000,0.300,1550.000,0.500,1741.000,1.000,657.000,5.000,0
"03/12/08","00:03:18",25528.000,"cc",28212.865,6.00,6,0.100,19283.000,0.200,2107.000,0.300,1625.000,0.500,1842.000,1.000,671.000,5.000,0
"03/12/08","00:03:24",25239.000,"cc",28356.697,6.00,6,0.100,19142.000,0.200,2070.000,0.300,1561.000,0.500,1833.000,1.000,633.000,5.000,0
"03/12/08","00:03:30",25594.000,"cc",28343.834,6.00,6,0.100,19396.000,0.200,2136.000,0.300,1636.000,0.500,1746.000,1.000,680.000,5.000,0
"03/12/08","00:03:36",25330.000,"cc",28415.033,6.00,6,0.100,19070.000,0.200,2163.000,0.300,1620.000,0.500,1842.000,1.000,635.000,5.000,0
"03/12/08","00:03:42",25688.000,"cc",28352.715,6.00,6,0.100,19544.000,0.200,2093.000,0.300,1571.000,0.500,1798.000,1.000,682.000,5.000,0
"03/12/08","00:03:48",25074.000,"cc",28289.225,6.00,6,0.100,19131.000,0.200,2051.000,0.300,1475.000,0.500,1776.000,1.000,641.000,5.000,0
"03/12/08","00:03:54",25395.000,"cc",28260.416,6.00,6,0.100,19276.000,0.200,2064.000,0.300,1536.000,0.500,1838.000,1.000,681.000,5.000,0
"03/12/08","00:04:00",25822.000,"cc",28297.498,6.00,6,0.100,19333.000,0.200,2144.000,0.300,1688.000,0.500,1955.000,1.000,702.000,5.000,0
"03/12/08","00:04:06",25665.000,"cc",28329.662,6.00,6,0.100,19348.000,0.200,2112.000,0.300,1640.000,0.500,1926.000,1.000,639.000,5.000,0
"03/12/08","00:04:12",25409.000,"cc",28316.045,6.00,6,0.100,19079.000,0.200,2105.000,0.300,1652.000,0.500,1859.000,1.000,714.000,5.000,0
"03/12/08","00:04:18",25343.000,"cc",28269.346,6.00,6,0.100,19172.000,0.200,2084.000,0.300,1635.000,0.500,1775.000,1.000,677.000,5.000,0
"03/12/08","00:04:24",24984.000,"cc",28367.188,6.00,6,0.100,18729.000,0.200,2183.000,0.300,1592.000,0.500,1817.000,1.000,662.000,5.000,1.000
"03/12/08","00:04:30",25314.000,"cc",28281.498,6.00,6,0.100,19239.000,0.200,2099.000,0.300,1615.000,0.500,1746.000,1.000,615.000,5.000,0
"03/12/08","00:04:36",25415.000,"cc",28352.096,6.00,6,0.100,19273.000,0.200,2078.000,0.300,1554.000,0.500,1868.000,1.000,642.000,5.000,0
"03/12/08","00:04:42",25611.000,"cc",28391.246,6.00,6,0.100,19504.000,0.200,2111.000,0.300,1496.000,0.500,1829.000,1.000,671.000,5.000,0
"03/12/08","00:04:48",25162.000,"cc",28327.016,6.00,6,0.100,19188.000,0.200,2085.000,0.300,1530.000,0.500,1751.000,1.000,608.000,5.000,0
"03/12/08","00:04:54",25685.000,"cc",28205.252,6.00,6,0.100,19295.000,0.200,2118.000,0.300,1664.000,0.500,1959.000,1.000,649.000,5.000,0
"03/12/08","00:05:00",25822.000,"cc",28330.516,6.00,6,0.100,19650.000,0.200,2080.000,0.300,1610.000,0.500,1839.000,1.000,643.000,5.000,0
"03/12/08","00:05:06",26054.000,"cc",28340.824,6.00,6,0.100,19748.000,0.200,2163.000,0.300,1607.000,0.500,1874.000,1.000,662.000,5.000,0
"03/12/08","00:05:12",25592.000,"cc",28307.807,6.00,6,0.100,19244.000,0.200,2152.000,0.300,1667.000,0.500,1876.000,1.000,653.000,5.000,0
"03/12/08","00:05:18",25425.000,"cc",28382.078,6.00,6,0.100,19352.000,0.200,2056.000,0.300,1542.000,0.500,1819.000,1.000,656.000,5.000,0
"03/12/08","00:05:24",25724.000,"cc",28280.273,6.00,6,0.100,19624.000,0.200,2026.000,0.300,1583.000,0.500,1849.000,1.000,642.000,5.000,0
"03/12/08","00:05:30",25298.000,"cc",28394.315,6.00,6,0.100,19425.000,0.200,2036.000,0.300,1497.000,0.500,1702.000,1.000,638.000,5.000,0
"03/12/08","00:05:36",25537.000,"cc",28374.502,6.00,6,0.100,19612.000,0.200,2067.000,0.300,1564.000,0.500,1697.000,1.000,597.000,5.000,0
"03/12/08","00:05:42",25513.000,"cc",28308.182,6.00,6,0.100,19573.000,0.200,2026.000,0.300,1527.000,0.500,1730.000,1.000,657.000,5.000,0
"03/12/08","00:05:48",25598.000,"cc",28300.865,6.00,6,0.100,19635.000,0.200,2033.000,0.300,1502.000,0.500,1752.000,1.000,676.000,5.000,0
"03/12/08","00:05:54",25513.000,"cc",28237.852,6.00,6,0.100,19533.000,0.200,1958.000,0.300,1547.000,0.500,1786.000,1.000,689.000,5.000,0
"03/12/08","00:06:00",25567.000,"cc",28335.576,6.00,6,0.100,19497.000,0.200,2085.000,0.300,1602.000,0.500,1726.000,1.000,657.000,5.000,0
"03/12/08","00:06:06",25535.000,"cc",28280.330,6.00,6,0.100,19488.000,0.200,2088.000,0.300,1536.000,0.500,1798.000,1.000,625.000,5.000,0
"03/12/08","00:06:12",25702.000,"cc",28341.754,6.00,6,0.100,19684.000,0.200,1987.000,0.300,1487.000,0.500,1844.000,1.000,700.000,5.000,0
"03/12/08","00:06:18",25329.000,"cc",28312.166,6.00,6,0.100,19533.000,0.200,1960.000,0.300,1468.000,0.500,1727.000,1.000,641.000,5.000,0
"03/12/08","00:06:24",25573.000,"cc",28370.496,6.00,6,0.100,19502.000,0.200,2054.000,0.300,1582.000,0.500,1772.000,1.000,663.000,5.000,0
"03/12/08","00:06:30",25649.000,"cc",28255.357,6.00,6,0.100,19605.000,0.200,2067.000,0.300,1543.000,0.500,1766.000,1.000,668.000,5.000,0
"03/12/08","00:06:36",25068.000,"cc",28375.533,6.00,6,0.100,19210.000,0.200,2007.000,0.300,1539.000,0.500,1669.000,1.000,643.000,5.000,0
"03/12/08","00:06:42",25465.000,"cc",28300.277,6.00,6,0.100,19463.000,0.200,2037.000,0.300,1524.000,0.500,1739.000,1.000,702.000,5.000,0
"03/12/08","00:06:48",25173.000,"cc",28309.430,6.00,6,0.100,19210.000,0.200,1981.000,0.300,1521.000,0.500,1797.000,1.000,664.000,5.000,0
"03/12/08","00:06:54",25363.000,"cc",28225.195,6.00,6,0.100,19307.000,0.200,2031.000,0.300,1542.000,0.500,1844.000,1.000,639.000,5.000,0
"03/12/08","00:07:00",25516.000,"cc",28328.945,6.00,6,0.100,19391.000,0.200,2101.000,0.300,1565.000,0.500,1776.000,1.000,683.000,5.000,0
"03/12/08","00:07:06",25107.000,"cc",28365.201,6.00,6,0.100,19174.000,0.200,2009.000,0.300,1590.000,0.500,1724.000,1.000,610.000,5.000,0
"03/12/08","00:07:12",25434.000,"cc",28310.424,6.00,6,0.100,19242.000,0.200,2069.000,0.300,1597.000,0.500,1845.000,1.000,681.000,5.000,0
"03/12/08","00:07:18",25568.000,"cc",28286.695,6.00,6,0.100,19427.000,0.200,2053.000,0.300,1581.000,0.500,1808.000,1.000,699.000,5.000,0
"03/12/08","00:07:24",25515.000,"cc",28230.400,6.00,6,0.100,19376.000,0.200,2128.000,0.300,1550.000,0.500,1807.000,1.000,654.000,5.000,0
"03/12/08","00:07:30",25630.000,"cc",28254.111,6.00,6,0.100,19605.000,0.200,2112.000,0.300,1536.000,0.500,1728.000,1.000,649.000,5.000,0
"03/12/08","00:07:36",25847.000,"cc",28423.287,6.00,6,0.100,19657.000,0.200,2108.000,0.300,1576.000,0.500,1862.000,1.000,644.000,5.000,0
"03/12/08","00:07:42",25733.000,"cc",28277.361,6.00,6,0.100,19458.000,0.200,2075.000,0.300,1682.000,0.500,1833.000,1.000,685.000,5.000,0
"03/12/08","00:07:48",25281.000,"cc",28403.065,6.00,6,0.100,19169.000,0.200,2101.000,0.300,1525.000,0.500,1796.000,1.000,690.000,5.000,0
"03/12/08","00:07:54",25771.000,"cc",28301.332,6.00,6,0.100,19701.000,0.200,2076.000,0.300,1548.000,0.500,1785.000,1.000,661.000,5.000,0
"03/12/08","00:08:00",25892.000,"cc",28310.707,6.00,6,0.100,19621.000,0.200,2132.000,0.300,1572.000,0.500,1869.000,1.000,698.000,5.000,0
"03/12/08","00:08:06",25440.000,"cc",28348.481,6.00,6,0.100,19356.000,0.200,2101.000,0.300,1531.000,0.500,1791.000,1.000,661.000,5.000,0
"03/12/08","00:08:12",25233.000,"cc",28435.660,6.00,6,0.100,19491.000,0.200,1936.000,0.300,1490.000,0.500,1686.000,1.000,630.000,5.000,0
"03/12/08","00:08:18",25588.000,"cc",28266.787,6.00,6,0.100,19792.000,0.200,1992.000,0.300,1540.000,0.500,1642.000,1.000,622.000,5.000,0
"03/12/08","00:08:24",25550.000,"cc",28282.250,6.00,6,0.100,19555.000,0.200,2051.000,0.300,1586.000,0.500,1724.000,1.000,634.000,5.000,0
"03/12/08","00:08:30",25324.000,"cc",28333.688,6.00,6,0.100,19460.000,0.200,2082.000,0.300,1474.000,0.500,1675.000,1.000,633.000,5.000,0
"03/12/08","00:08:36",25372.000,"cc",28273.223,6.00,6,0.100,19450.000,0.200,2128.000,0.300,1469.000,0.500,1691.000,1.000,634.000,5.000,0
"03/12/08","00:08:42",25369.000,"cc",28286.797,6.00,6,0.100,19354.000,0.200,2044.000,0.300,1539.000,0.500,1796.000,1.000,636.000,5.000,0
"03/12/08","00:08:48",25713.000,"cc",28378.217,6.00,6,0.100,19567.000,0.200,2109.000,0.300,1560.000,0.500,1818.000,1.000,659.000,5.000,0
"03/12/08","00:08:54",25316.000,"cc",28372.768,6.00,6,0.100,19240.000,0.200,2049.000,0.300,1576.000,0.500,1817.000,1.000,634.000,5.000,0
"03/12/08","00:09:00",25582.000,"cc",28278.875,6.00,6,0.100,19512.000,0.200,2095.000,0.300,1534.000,0.500,1786.000,1.000,655.000,5.000,0
"03/12/08","00:09:06",25448.000,"cc",28230.893,6.00,6,0.100,19408.000,0.200,2063.000,0.300,1542.000,0.500,1782.000,1.000,653.000,5.000,0
"03/12/08","00:09:12",25494.000,"cc",28339.859,6.00,6,0.100,19473.000,0.200,2043.000,0.300,1539.000,0.500,1775.000,1.000,664.000,5.000,0
"03/12/08","00:09:18",25478.000,"cc",28335.049,6.00,6,0.100,19261.000,0.200,2047.000,0.300,1613.000,0.500,1875.000,1.000,682.000,5.000,0
"03/12/08","00:09:24",25669.000,"cc",28258.951,6.00,6,0.100,19383.000,0.200,2229.000,0.300,1587.000,0.500,1813.000,1.000,657.000,5.000,0
"03/12/08","00:09:30",25742.000,"cc",28313.848,6.00,6,0.100,19611.000,0.200,2100.000,0.300,1628.000,0.500,1741.000,1.000,662.000,5.000,0
"03/12/08","00:09:36",25533.000,"cc",28321.365,6.00,6,0.100,19416.000,0.200,2076.000,0.300,1531.000,0.500,1890.000,1.000,620.000,5.000,0
"03/12/08","00:09:42",25621.000,"cc",28366.109,6.00,6,0.100,19474.000,0.200,2115.000,0.300,1553.000,0.500,1817.000,1.000,662.000,5.000,0
"03/12/08","00:09:48",25573.000,"cc",28230.893,6.00,6,0.100,19490.000,0.200,2101.000,0.300,1575.000,0.500,1789.000,1.000,618.000,5.000,0
"03/12/08","00:09:54",25733.000,"cc",28369.402,6.00,6,0.100,19503.000,0.200,2086.000,0.300,1648.000,0.500,1829.000,1.000,667.000,5.000,0
"03/12/08","00:10:00",25640.000,"cc",28346.719,6.00,6,0.100,19529.000,0.200,2080.000,0.300,1582.000,0.500,1807.000,1.000,642.000,5.000,0
"03/12/08","00:10:06",25659.000,"cc",28283.367,6.00,6,0.100,19534.000,0.200,2034.000,0.300,1603.000,0.500,1824.000,1.000,664.000,5.000,0
"03/12/08","00:10:12",25617.000,"cc",28326.732,6.00,6,0.100,19551.000,0.200,2047.000,0.300,1531.000,0.500,1829.000,1.000,659.000,5.000,0
"03/12/08","00:10:18",25534.000,"cc",28337.777,6.00,6,0.100,19486.000,0.200,2024.000,0.300,1498.000,0.500,1830.000,1.000,696.000,5.000,0
"03/12/08","00:10:24",25538.000,"cc",28245.652,6.00,6,0.100,19508.000,0.200,2090.000,0.300,1542.000,0.500,1756.000,1.000,642.000,5.000,0
"03/12/08","00:10:30",25464.000,"cc",28336.514,6.00,6,0.100,19441.000,0.200,2100.000,0.300,1591.000,0.500,1706.000,1.000,626.000,5.000,0
"03/12/08","00:10:36",25701.000,"cc",28297.309,6.00,6,0.100,19613.000,0.200,2056.000,0.300,1546.000,0.500,1831.000,1.000,655.000,5.000,0
"03/12/08","00:10:42",25748.000,"cc",28320.857,6.00,6,0.100,19664.000,0.200,2154.000,0.300,1540.000,0.500,1737.000,1.000,653.000,5.000,0
"03/12/08","00:10:48",25751.000,"cc",28340.131,6.00,6,0.100,19648.000,0.200,2119.000,0.300,1635.000,0.500,1739.000,1.000,610.000,5.000,0
"03/12/08","00:10:54",25616.000,"cc",28305.953,6.00,6,0.100,19550.000,0.200,2036.000,0.300,1639.000,0.500,1688.000,1.000,703.000,5.000,0
"03/12/08","00:11:00",25569.000,"cc",28384.229,6.00,6,0.100,19629.000,0.200,2041.000,0.300,1560.000,0.500,1690.000,1.000,649.000,5.000,0
"03/12/08","00:11:06",25466.000,"cc",28307.400,6.00,6,0.100,19667.000,0.200,2006.000,0.300,1526.000,0.500,1656.000,1.000,611.000,5.000,0
"03/12/08","00:11:12",25630.000,"cc",28333.408,6.00,6,0.100,19672.000,0.200,2016.000,0.300,1521.000,0.500,1790.000,1.000,631.000,5.000,0
"03/12/08","00:11:18",25808.000,"cc",28351.043,6.00,6,0.100,19878.000,0.200,2000.000,0.300,1536.000,0.500,1739.000,1.000,655.000,5.000,0
"03/12/08","00:11:24",25679.000,"cc",28368.236,6.00,6,0.100,19875.000,0.200,2069.000,0.300,1473.000,0.500,1596.000,1.000,666.000,5.000,0
"03/12/08","00:11:30",25643.000,"cc",28278.727,6.00,6,0.100,19678.000,0.200,2085.000,0.300,1522.000,0.500,1749.000,1.000,609.000,5.000,0
"03/12/08","00:11:36",25586.000,"cc",28209.715,6.00,6,0.100,19795.000,0.200,1971.000,0.300,1499.000,0.500,1727.000,1.000,594.000,5.000,0
"03/12/08","00:11:42",25641.000,"cc",28374.889,6.00,6,0.100,19775.000,0.200,2057.000,0.300,1487.000,0.500,1730.000,1.000,592.000,5.000,0
"03/12/08","00:11:48",25826.000,"cc",28268.856,6.00,6,0.100,19926.000,0.200,2040.000,0.300,1520.000,0.500,1718.000,1.000,622.000,5.000,0
"03/12/08","00:11:54",25729.000,"cc",28312.354,6.00,6,0.100,19904.000,0.200,2035.000,0.300,1482.000,0.500,1710.000,1.000,598.000,5.000,0
"03/12/08","00:12:00",25884.000,"cc",28304.207,6.00,6,0.100,19911.000,0.200,2094.000,0.300,1452.000,0.500,1781.000,1.000,646.000,5.000,0
"03/12/08","00:12:06",25663.000,"cc",28369.703,6.00,6,0.100,19649.000,0.200,2076.000,0.300,1573.000,0.500,1731.000,1.000,634.000,5.000,0
"03/12/08","00:12:12",25698.000,"cc",28273.277,6.00,6,0.100,19818.000,0.200,2086.000,0.300,1505.000,0.500,1670.000,1.000,619.000,5.000,0
"03/12/08","00:12:18",25602.000,"cc",28358.648,6.00,6,0.100,19791.000,0.200,2051.000,0.300,1541.000,0.500,1650.000,1.000,569.000,5.000,0
"03/12/08","00:12:24",25655.000,"cc",28336.572,6.00,6,0.100,19959.000,0.200,2008.000,0.300,1429.000,0.500,1631.000,1.000,628.000,5.000,0
"03/12/08","00:12:30",25824.000,"cc",28251.631,6.00,6,0.100,19818.000,0.200,2111.000,0.300,1501.000,0.500,1728.000,1.000,666.000,5.000,0
"03/12/08","00:12:36",25902.000,"cc",28286.717,6.00,6,0.100,19867.000,0.200,2157.000,0.300,1540.000,0.500,1703.000,1.000,635.000,5.000,0
"03/12/08","00:12:42",25409.000,"cc",28373.984,6.00,6,0.100,19760.000,0.200,2042.000,0.300,1462.000,0.500,1554.000,1.000,591.000,5.000,0
"03/12/08","00:12:48",25422.000,"cc",28437.459,6.00,6,0.100,19716.000,0.200,2024.000,0.300,1419.000,0.500,1649.000,1.000,614.000,5.000,0
"03/12/08","00:12:54",25435.000,"cc",28261.065,6.00,6,0.100,19729.000,0.200,1960.000,0.300,1492.000,0.500,1651.000,1.000,603.000,5.000,0
"03/12/08","00:13:00",25575.000,"cc",28307.520,6.00,6,0.100,19750.000,0.200,2026.000,0.300,1511.000,0.500,1658.000,1.000,630.000,5.000,0
"03/12/08","00:13:06",25401.000,"cc",28335.848,6.00,6,0.100,19553.000,0.200,2020.000,0.300,1533.000,0.500,1663.000,1.000,632.000,5.000,0
"03/12/08","00:13:12",25241.000,"cc",28249.762,6.00,6,0.100,19533.000,0.200,1970.000,0.300,1451.000,0.500,1665.000,1.000,622.000,5.000,0
"03/12/08","00:13:18",25275.000,"cc",28352.178,6.00,6,0.100,19594.000,0.200,2035.000,0.300,1433.000,0.500,1571.000,1.000,642.000,5.000,0
"03/12/08","00:13:24",25086.000,"cc",28306.543,6.00,6,0.100,19155.000,0.200,2089.000,0.300,1496.000,0.500,1717.000,1.000,629.000,5.000,0
"03/12/08","00:13:30",25490.000,"cc",28300.475,6.00,6,0.100,19635.000,0.200,2054.000,0.300,1502.000,0.500,1650.000,1.000,649.000,5.000,0
"03/12/08","00:13:36",25346.000,"cc",28299.891,6.00,6,0.100,19513.000,0.200,2081.000,0.300,1467.000,0.500,1690.000,1.000,595.000,5.000,0
"03/12/08","00:13:42",25143.000,"cc",28361.734,6.00,6,0.100,19339.000,0.200,2041.000,0.300,1461.000,0.500,1682.000,1.000,620.000,5.000,0
"03/12/08","00:13:48",25514.000,"cc",28249.266,6.00,6,0.100,19466.000,0.200,2036.000,0.300,1593.000,0.500,1763.000,1.000,656.000,5.000,0
"03/12/08","00:13:54",25387.000,"cc",28342.508,6.00,6,0.100,19463.000,0.200,2064.000,0.300,1500.000,0.500,1714.000,1.000,646.000,5.000,0
"03/12/08","00:14:00",25971.000,"cc",28284.613,6.00,6,0.100,19845.000,0.200,2153.000,0.300,1611.000,0.500,1732.000,1.000,630.000,5.000,0
"03/12/08","00:14:06",25383.000,"cc",28377.498,6.00,6,0.100,19509.000,0.200,2036.000,0.300,1475.000,0.500,1724.000,1.000,639.000,5.000,0
"03/12/08","00:14:12",25371.000,"cc",28307.506,6.00,6,0.100,19558.000,0.200,2069.000,0.300,1456.000,0.500,1676.000,1.000,612.000,5.000,0
"03/12/08","00:14:18",25580.000,"cc",28215.748,6.00,6,0.100,19658.000,0.200,2099.000,0.300,1501.000,0.500,1680.000,1.000,642.000,5.000,0
"03/12/08","00:14:24",25712.000,"cc",28303.854,6.00,6,0.100,19695.000,0.200,2104.000,0.300,1532.000,0.500,1766.000,1.000,615.000,5.000,0
"03/12/08","00:14:30",25353.000,"cc",28356.430,6.00,6,0.100,19720.000,0.200,2024.000,0.300,1379.000,0.500,1648.000,1.000,582.000,5.000,0
"03/12/08","00:14:36",25334.000,"cc",28304.570,6.00,6,0.100,19390.000,0.200,2115.000,0.300,1546.000,0.500,1674.000,1.000,609.000,5.000,0
"03/12/08","00:14:42",25351.000,"cc",28381.846,6.00,6,0.100,19649.000,0.200,1984.000,0.300,1458.000,0.500,1619.000,1.000,641.000,5.000,0
"03/12/08","00:14:48",25470.000,"cc",28264.402,6.00,6,0.100,19588.000,0.200,2064.000,0.300,1496.000,0.500,1688.000,1.000,634.000,5.000,0
"03/12/08","00:14:54",25466.000,"cc",28240.147,6.00,6,0.100,19489.000,0.200,2092.000,0.300,1473.000,0.500,1775.000,1.000,637.000,5.000,0
"03/12/08","00:15:00",25413.000,"cc",28305.287,6.00,6,0.100,19587.000,0.200,2103.000,0.300,1435.000,0.500,1647.000,1.000,641.000,5.000,0
"03/12/08","00:15:06",25256.000,"cc",28329.850,6.00,6,0.100,19320.000,0.200,2019.000,0.300,1525.000,0.500,1723.000,1.000,669.000,5.000,0
"03/12/08","00:15:12",25522.000,"cc",28414.623,6.00,6,0.100,19564.000,0.200,2065.000,0.300,1491.000,0.500,1711.000,1.000,691.000,5.000,0
"03/12/08","00:15:18",25106.000,"cc",28143.207,6.00,6,0.100,19331.000,0.200,2005.000,0.300,1434.000,0.500,1687.000,1.000,649.000,5.000,0
"03/12/08","00:15:24",25634.000,"cc",28235.357,6.00,6,0.100,19443.000,0.200,2164.000,0.300,1571.000,0.500,1800.000,1.000,656.000,5.000,0
"03/12/08","00:15:30",25587.000,"cc",28346.992,6.00,6,0.100,19568.000,0.200,2172.000,0.300,1472.000,0.500,1711.000,1.000,664.000,5.000,0
"03/12/08","00:15:36",25386.000,"cc",28322.686,6.00,6,0.100,19517.000,0.200,2041.000,0.300,1536.000,0.500,1655.000,1.000,637.000,5.000,0
"03/12/08","00:15:42",25256.000,"cc",28276.029,6.00,6,0.100,19300.000,0.200,2045.000,0.300,1573.000,0.500,1713.000,1.000,625.000,5.000,0
"03/12/08","00:15:48",25459.000,"cc",28343.477,6.00,6,0.100,19414.000,0.200,2030.000,0.300,1547.000,0.500,1777.000,1.000,691.000,5.000,0
"03/12/08","00:15:54",25171.000,"cc",28356.873,6.00,6,0.100,19218.000,0.200,2106.000,0.300,1464.000,0.500,1755.000,1.000,628.000,5.000,0
"03/12/08","00:16:00",24996.000,"cc",28229.277,6.00,6,0.100,19174.000,0.200,2024.000,0.300,1475.000,0.500,1731.000,1.000,592.000,5.000,0
"03/12/08","00:16:06",24978.000,"cc",28428.193,6.00,6,0.100,19325.000,0.200,1912.000,0.300,1460.000,0.500,1639.000,1.000,642.000,5.000,0
"03/12/08","00:16:12",25243.000,"cc",28302.615,6.00,6,0.100,19421.000,0.200,1983.000,0.300,1505.000,0.500,1679.000,1.000,655.000,5.000,0
"03/12/08","00:16:18",25324.000,"cc",28229.559,6.00,6,0.100,19581.000,0.200,2015.000,0.300,1466.000,0.500,1686.000,1.000,576.000,5.000,0